This is the latest recevied weather packets stored in our database for station/object KC5TIL. If no packets are shown the sender has not sent any weather packets the latest 10 day(s).
| Time | Temp. | Humidity | Pressure | Rain* | Wind** | Luminosity | Snow |
|---|---|---|---|---|---|---|---|
| 1777119357 | 22.78° C | 94% | 1008.3 hPa | 0 mm | - | 24 W/m² | - |
| 1777119053 | 22.78° C | 94% | 1008.2 hPa | 0 mm | - | 16 W/m² | - |
| 1777118748 | 22.78° C | 94% | 1008 hPa | 0 mm | - | 11 W/m² | - |
| 1777118445 | 22.78° C | 94% | 1008 hPa | 0 mm | - | 8 W/m² | - |
| 1777118141 | 22.78° C | 94% | 1007.9 hPa | 0 mm | - | 4 W/m² | - |
| 1777117837 | 22.78° C | 93% | 1007.8 hPa | 0 mm | - | 2 W/m² | - |
| 1777117534 | 22.78° C | 93% | 1007.7 hPa | 0 mm | - | 0 W/m² | - |
| 1777117233 | 22.78° C | 93% | 1007.7 hPa | 0 mm | - | 0 W/m² | - |
| 1777116932 | 22.78° C | 93% | 1007.6 hPa | 0 mm | - | 0 W/m² | - |
| 1777116628 | 22.78° C | 93% | 1007.6 hPa | 0 mm | - | 0 W/m² | - |
| 1777116324 | 22.78° C | 93% | 1007.4 hPa | 0 mm | - | 0 W/m² | - |
| 1777116020 | 22.78° C | 93% | 1007.3 hPa | 0 mm | - | 0 W/m² | - |
| 1777115715 | 22.78° C | 93% | 1007.5 hPa | 0 mm | - | 0 W/m² | - |
| 1777115411 | 22.78° C | 93% | 1007.5 hPa | 0 mm | - | 0 W/m² | - |
| 1777115107 | 22.78° C | 94% | 1007.4 hPa | 0 mm | - | 0 W/m² | - |
| 1777114804 | 22.78° C | 94% | 1007.5 hPa | 0 mm | - | 0 W/m² | - |
| 1777114500 | 22.78° C | 94% | 1007.2 hPa | 0 mm | - | 0 W/m² | - |
| 1777114195 | 22.78° C | 94% | 1007.4 hPa | 0 mm | - | 0 W/m² | - |
| 1777113891 | 22.78° C | 94% | 1007.2 hPa | 0 mm | - | 0 W/m² | - |
| 1777113590 | 22.78° C | 94% | 1007.2 hPa | 0 mm | - | 0 W/m² | - |
| 1777113285 | 22.78° C | 94% | 1007.3 hPa | 0 mm | - | 0 W/m² | - |
| 1777112980 | 22.22° C | 94% | 1007.2 hPa | 0 mm | - | 0 W/m² | - |
* Rain latest hour (hover to see other rain measurements)
** Current wind speed in m/s (hover to see current wind gust speed)